Location: Stilling
(56.0622°N, 9.9882°E)
Time: 23:22:09
(UTC+00:00)

Cosmos 1500 Rocket - Pass Details

Date: 13 July 2020
Orbit: 602 x 632 km, 82.5° (Epoch: 03 August)

Event Time Altitude Azimuth Distance (km) Brightness Sun altitude
Exits shadow 22:43:44 17° 183° (S) 1,584 5.0 -11.8°
Maximum altitude 22:47:07 76° 100° (E) 638 3.5 -11.9°
Drops below altitude 10° 22:51:29 10° 15° (NNE) 1,976 7.3 -12.0°
Sets 22:53:42 0° 14° (NNE) 2,881 8.4 -12.0°
